Weather WX

World > North America > United States > Ohio

Jefferson, Ohio Regional Weather

Lat: 41.74N, Lon: 80.77W
Wx Zone: OHZ014
Warning FLW WEATHER ALERT - FLASH FLOOD WATCH (More Info. Click Here) Warning
Feedback

Jefferson, OH Regional Weather

Expires:201906161700;;167391
ASUS41 KCLE 161612
RWRCLE
OHIO REGIONAL WEATHER ROUNDUP
NATIONAL WEATHER SERVICE WILMINGTON, OH
1200 PM EDT SUN JUN 16 2019

NOTE: "FAIR" INDICATES FEW OR NO CLOUDS BELOW 12,000 FEET WITH NO
SIGNIFICANT WEATHER AND/OR OBSTRUCTIONS TO VISIBILITY.


OHZ009>014-019>023-028>033-038-089-161700-
   NORTHEAST OHIO
  
CITY           SKY/WX    TMP DP  RH WIND       PRES   REMARKS
CLE-HOPKINS    LGT RAIN  68  66  93 SE3       29.85R                  
CLE-LAKEFRONT  LGT RAIN  65  62  90 NE3       29.82S FOG              
CUY CO. ARPT   CLOUDY    66  64  94 CALM      29.83F FOG              
LORAIN-ELYRIA  CLOUDY    67  62  84 VRB5      29.82S                  
ASHTABULA      LGT RAIN  61  61 100 CALM      29.87R FOG              
AKRON-CANTON   LGT RAIN  70  66  87 SW8       29.85S FOG              
WOOSTER        CLOUDY    69  67  93 SW15      29.85S                  
MANSFIELD      CLOUDY    68  67  96 SW12G21   29.85R                  
YOUNGSTOWN     LGT RAIN  67  65  93 SW6       29.86R FOG              
$$
 

SKY/WX - Weather  TMP - Temperature  DP - Dew Point  RH - Relative Humidity
WIND - Wind Direction/Speed PRES - Barometric Pressure VSB - Visibility
WCI - Wind Chill Index E13G22 Wind - East Wind 13 mph/Gusts of 22 mph